Flag for Denmark Weather past 2 weeks in Aalborg, Denmark

Now
55 °F

Passing clouds.


Feels Like: 51 °F
Forecast: 41 / 56 °F
Wind: 18 mph from West

Location: Aalborg Airport

Current Time: Apr 18, 2015 at 5:12:03 PM

Latest Report: Apr 18, 2015 at 4:20 PM


Visibility: N/A

Pressure: 30.18 "Hg

Humidity: 59%

Dew point: 41 °F

Location of AalborgLocation

Historic Weather in Aalborg — Graph

°F

Aalborg temperature yesterday

Maximum temperature yesterday: 54 °F (at 2:50 PM)
Minimum temperature yesterday: 37 °F (at 1:20 AM)
Average temperature yesterday: 47 °F

Past Weeks' High & Low Weather Summary

 TemperatureHumidityPressure
High68 °F (Apr 11, 3:50 PM)100% (Apr 6, 1:50 AM)30.45 "Hg (Apr 6, 1:50 AM)
Low28 °F (Apr 4, 6:20 AM)31% (Apr 8, 4:20 PM)29.62 "Hg (Apr 15, 2:03 PM)
Average45 °F78%30.10 "Hg
* Reported Apr 3 3:20 PM — Apr 18 3:50 PM, Aalborg, Weather by CustomWeather, © 2015

Note: Actual official high and low records may vary slightly from our data, if they occured in-between our weather recording intervals... More about our weather records

Advertising

Aalborg weather history for previous 24 hours

 ConditionsComfort  
Time TempWeatherWind HumidityBarometerVisibility
3:50 PM
Sat, Apr 18
55 °FScattered clouds.18 mph51%30.21 "HgN/A
3:20 PM55 °FPartly sunny.18 mph55%30.21 "HgN/A
2:50 PM55 °FPartly sunny.18 mph51%30.24 "HgN/A
2:20 PM57 °FPartly sunny.17 mph51%30.24 "HgN/A
1:50 PM55 °FPartly sunny.16 mph47%30.27 "HgN/A
1:20 PM55 °FPartly sunny.15 mph55%30.27 "HgN/A
12:50 PM55 °FPartly sunny.16 mph51%30.27 "HgN/A
12:20 PM55 °FScattered clouds.16 mph47%30.27 "HgN/A
11:50 AM55 °FScattered clouds.9 mph44%30.30 "HgN/A
11:20 AM55 °FPassing clouds.10 mph44%30.30 "HgN/A
10:50 AM52 °FSunny.9 mph62%30.30 "Hg10 mi
10:20 AM52 °FSunny.8 mph67%30.30 "Hg10 mi
9:50 AM50 °FSunny.7 mph76%30.30 "Hg10 mi
9:20 AM48 °FPassing clouds.5 mph76%30.30 "HgN/A
8:50 AM46 °FSunny.2 mph82%30.33 "Hg10 mi
8:20 AM43 °FSunny.2 mph93%30.33 "Hg10 mi
7:50 AM41 °FSunny.1 mph93%30.33 "Hg10 mi
7:20 AM37 °FFog.2 mph93%30.33 "Hg5 mi
6:50 AM37 °FFog.1 mph87%30.30 "Hg5 mi
6:20 AM34 °FFog.No wind93%30.30 "Hg5 mi
5:50 AM36 °FFog.No wind87%30.30 "HgN/A
5:20 AM37 °FClear.No wind87%30.30 "Hg10 mi
4:50 AM39 °FClear.1 mph93%30.33 "Hg10 mi
4:20 AM39 °FClear.5 mph93%30.30 "Hg10 mi
3:50 AM39 °FClear.3 mph87%30.30 "Hg10 mi
3:20 AM39 °FClear.2 mph87%30.30 "Hg10 mi
2:50 AM41 °FClear.3 mph81%30.30 "Hg10 mi
2:20 AM41 °FClear.2 mph81%30.30 "Hg10 mi
1:50 AM41 °FClear.2 mph87%30.30 "Hg10 mi
1:20 AM41 °FClear.3 mph81%30.30 "Hg10 mi
12:50 AM43 °FClear.3 mph81%30.27 "Hg10 mi
12:20 AM43 °FClear.3 mph81%30.27 "Hg10 mi
11:50 PM
Fri, Apr 17
45 °FClear.5 mph76%30.27 "Hg10 mi
11:20 PM45 °FClear.2 mph76%30.27 "Hg10 mi
10:50 PM46 °FClear.3 mph71%30.24 "Hg10 mi
10:20 PM46 °FClear.1 mph66%30.24 "Hg10 mi
9:50 PM48 °FClear.3 mph62%30.21 "Hg10 mi
9:20 PM48 °FPassing clouds.5 mph62%30.21 "HgN/A
8:50 PM48 °FPartly sunny.6 mph62%30.21 "HgN/A
8:20 PM48 °FPartly sunny.6 mph62%30.18 "HgN/A
7:50 PM48 °FPassing clouds.6 mph66%30.18 "HgN/A
7:20 PM50 °FPassing clouds.8 mph62%30.15 "HgN/A
6:50 PM54 °FPassing clouds.9 mph44%30.15 "HgN/A
6:20 PM54 °FPassing clouds.9 mph41%30.12 "HgN/A
5:50 PM54 °FPassing clouds.13 mph41%30.12 "HgN/A
5:20 PM54 °FPassing clouds.12 mph44%30.12 "HgN/A
Weather by CustomWeather, © 2015

See weather overviewHow to use our weather pages